Weather reports worldwide

Advertisment
Manston, United Kingdom (3797): temperature & dewpoint: 11.06.2019 19:00:00 - 17.06.2019 19:00:00 (BST)Manston, United Kingdom (3797): temperature -20cm & temperature -100cm: 11.06.2019 19:00:00 - 17.06.2019 19:00:00 (BST)Manston, United Kingdom (3797): wind speed & gusts: 11.06.2019 19:00:00 - 17.06.2019 19:00:00 (BST)Manston, United Kingdom (3797): wind direction: 11.06.2019 19:00:00 - 17.06.2019 19:00:00 (BST)Manston, United Kingdom (3797): reduced air pressure: 11.06.2019 19:00:00 - 17.06.2019 19:00:00 (BST)Manston, United Kingdom (3797): visibility: 11.06.2019 19:00:00 - 17.06.2019 19:00:00 (BST)Manston, United Kingdom (3797): sunshine duration: 11.06.2019 19:00:00 - 17.06.2019 19:00:00 (BST)Manston, United Kingdom (3797): precipitation: 11.06.2019 19:00:00 - 17.06.2019 19:00:00 (BST)
Date & Time tt [°C] td [°C] tt -20cm [°C] tt -100cm [°C] ff [km/h] ff [kn] fx [km/h] fx [kn] dd ppp [hPa] vv [km] sd [min] rr [mm]
17.06.2019 19:00:00 - - - - - - - - - - - - -
17.06.2019 18:00:00 19,8 7,2 - - 18 10 - - SSW 1017,1 35 54 0,0
17.06.2019 17:00:00 21,4 9,4 - - 22 12 - - SSW 1017,3 40 60 0,0
17.06.2019 16:00:00 21,4 9,4 - - 26 14 - - SSW 1017,7 50 60 0,0
17.06.2019 15:00:00 21,2 10,8 - - 31 17 - - S 1018,0 26 60 0,0
17.06.2019 14:00:00 21,1 12,1 - - 28 15 - - SSW 1018,3 40 60 0,0
17.06.2019 13:00:00 21,2 11,7 - - 29 16 - - S 1018,5 15 60 0,0
17.06.2019 12:00:00 21,0 11,8 - - 22 12 - - SSW 1018,8 40 48 0,0
17.06.2019 11:00:00 20,6 12,5 - - 21 11 - - SSW 1018,8 25 30 0,0
17.06.2019 10:00:00 19,7 11,8 14,7 13,0 18 10 - - SW 1019,2 50 42 0,0
17.06.2019 09:00:00 16,8 12,9 - - 9 5 - - S 1019,4 28 54 0,0
17.06.2019 08:00:00 15,9 11,9 - - 8 4 - - S 1019,6 50 54 0,0
17.06.2019 07:00:00 14,3 11,8 - - 5 3 - - S 1019,6 35 42 0,0
17.06.2019 06:00:00 13,2 11,2 - - 5 3 - - SSW 1019,3 35 12 0,0
17.06.2019 05:00:00 12,7 11,0 - - 5 3 - - S 1019,4 35 0 0,0
17.06.2019 04:00:00 12,5 10,8 - - 9 5 - - SSE 1019,4 30 0 0,0
17.06.2019 03:00:00 13,2 11,6 - - 9 5 - - S 1019,6 26 0 0,0
17.06.2019 02:00:00 12,5 11,1 - - 9 5 - - S 1019,9 30 0 0,0
17.06.2019 01:00:00 12,5 11,5 - - 13 7 - - S 1020,0 15 - 0,0
17.06.2019 00:00:00 12,0 10,9 - - 8 4 - - SSE 1020,0 12 0 0,0
16.06.2019 23:00:00 13,1 11,0 - - 11 6 - - S 1019,9 26 0 0,0
16.06.2019 22:00:00 14,1 10,9 - - 9 5 - - S 1019,9 45 0 0,0
16.06.2019 21:00:00 15,5 10,4 - - 13 7 - - SSW 1019,4 35 18 0,0
16.06.2019 20:00:00 17,7 10,2 - - 22 12 - - SW 1019,4 45 60 0,0
16.06.2019 19:00:00 18,9 10,2 - - 26 14 - - SW 1019,2 45 60 0,0
16.06.2019 18:00:00 19,8 10,9 - - 31 17 - - WSW 1018,7 50 54 0,0
16.06.2019 17:00:00 18,7 11,2 - - 34 18 46 25 SW 1019,0 45 36 0,0
16.06.2019 16:00:00 19,7 12,3 - - 35 19 57 31 SW 1018,8 50 42 0,0
16.06.2019 15:00:00 19,1 12,6 - - 37 20 54 29 SW 1018,4 45 30 0,0
16.06.2019 14:00:00 18,9 12,3 - - 35 19 52 28 SW 1018,2 24 18 0,0
16.06.2019 13:00:00 17,2 12,5 - - 29 16 - - SSW 1018,3 23 0 0,2
16.06.2019 12:00:00 17,9 12,4 - - 34 18 46 25 SSW 1018,2 35 12 0,0
16.06.2019 11:00:00 16,9 12,5 - - 29 16 - - S 1018,3 30 6 0,0
16.06.2019 10:00:00 17,8 11,9 14,7 12,9 28 15 - - SSW 1017,9 35 42 0,0
16.06.2019 09:00:00 16,4 11,6 - - 22 12 - - SSW 1017,8 26 36 0,0
16.06.2019 08:00:00 14,5 12,2 - - 13 7 - - S 1017,7 40 30 0,0
16.06.2019 07:00:00 12,4 11,0 - - 13 7 - - S 1017,4 27 24 0,0
16.06.2019 06:00:00 11,4 10,6 - - 9 5 - - S 1017,0 18 18 0,0
16.06.2019 05:00:00 11,0 10,2 - - 8 4 - - SW 1016,6 14 0 0,0
16.06.2019 04:00:00 11,5 10,4 - - 9 5 - - SW 1016,4 16 0 0,0
16.06.2019 03:00:00 12,0 10,7 - - 9 5 - - WSW 1016,2 14 0 0,0
16.06.2019 02:00:00 13,1 11,8 - - 15 8 - - SW 1015,8 22 0 0,0
16.06.2019 01:00:00 13,0 11,7 - - 16 9 - - SSW 1015,6 30 - 0,0
16.06.2019 00:00:00 13,1 11,4 - - 13 7 - - SSW 1015,3 29 0 0,0
15.06.2019 23:00:00 14,3 12,4 - - 18 10 - - SSW 1015,2 40 0 0,0
15.06.2019 22:00:00 14,2 11,5 - - 18 10 - - S 1015,1 40 0 0,0
15.06.2019 21:00:00 14,7 11,4 - - 21 11 - - SSW 1014,6 50 6 0,0
15.06.2019 20:00:00 16,4 10,5 - - 22 12 - - SSW 1014,6 26 54 0,0
15.06.2019 19:00:00 17,5 9,5 - - 28 15 - - SW 1014,5 30 36 0,0
15.06.2019 18:00:00 17,3 8,8 - - 31 17 48 26 SSW 1014,6 40 54 0,0
15.06.2019 17:00:00 18,6 9,8 - - 28 15 - - SSW 1014,5 35 54 0,0
15.06.2019 16:00:00 18,8 8,7 - - 29 16 - - SSW 1014,6 30 54 0,0
15.06.2019 15:00:00 18,9 9,0 - - 28 15 - - SSW 1014,5 30 60 0,0
15.06.2019 14:00:00 19,4 9,4 - - 29 16 - - S 1014,5 45 60 0,0
15.06.2019 13:00:00 18,8 9,9 - - 28 15 - - SSW 1014,5 25 54 0,0
15.06.2019 12:00:00 19,4 9,9 - - 26 14 - - SSW 1014,0 30 24 0,0
15.06.2019 11:00:00 18,5 11,1 - - 15 8 - - SSW 1013,9 30 6 0,0
15.06.2019 10:00:00 16,3 10,0 14,2 12,9 9 5 - - SW 1013,9 28 6 0,0
15.06.2019 09:00:00 16,4 9,9 - - 9 5 - - WSW 1013,5 19 18 0,0
15.06.2019 08:00:00 15,0 9,5 - - 8 4 - - W 1013,1 30 18 0,0
15.06.2019 07:00:00 13,0 9,9 - - 5 3 - - W 1013,0 35 0 0,0
15.06.2019 06:00:00 12,8 9,4 - - 5 3 - - WSW 1013,0 45 0 0,0
15.06.2019 05:00:00 12,5 9,5 - - 11 6 - - WSW 1013,0 50 0 0,0
15.06.2019 04:00:00 12,1 9,9 - - 8 4 - - S 1012,4 45 0 0,0
15.06.2019 03:00:00 11,8 9,7 - - 9 5 - - W 1011,9 45 0 0,0
15.06.2019 02:00:00 12,2 9,7 - - 8 4 - - SW 1012,5 35 0 0,0
15.06.2019 01:00:00 13,0 10,1 - - 4 2 - - S 1012,8 50 - 0,0
15.06.2019 00:00:00 13,2 10,2 - - 8 4 - - SSW 1012,9 45 0 0,0
14.06.2019 23:00:00 13,6 9,9 - - 8 4 - - SSW 1013,1 50 0 0,0
14.06.2019 22:00:00 14,3 9,9 - - 5 3 - - S 1013,2 35 0 0,0
14.06.2019 21:00:00 15,2 9,9 - - 2 1 - - SSE 1012,8 40 24 0,0
14.06.2019 20:00:00 17,0 9,5 - - 9 5 - - S 1012,5 50 48 0,0
14.06.2019 19:00:00 18,6 8,8 - - 16 9 - - SSW 1012,5 40 60 0,0
14.06.2019 18:00:00 19,1 6,8 - - 22 12 - - SSW 1012,3 45 60 0,0
14.06.2019 17:00:00 19,0 7,8 - - 28 15 - - SSW 1012,3 35 60 0,0
14.06.2019 16:00:00 18,7 9,3 - - 28 15 - - SSW 1012,8 50 60 0,0
14.06.2019 15:00:00 17,9 10,0 - - 31 17 - - S 1013,1 30 60 0,0
14.06.2019 14:00:00 18,4 10,1 - - 29 16 - - S 1012,9 30 48 0,0
14.06.2019 13:00:00 18,5 8,8 - - 29 16 - - SSW 1012,6 30 48 0,0
14.06.2019 12:00:00 18,1 10,4 - - 28 15 - - S 1012,2 30 48 0,0
14.06.2019 11:00:00 18,3 10,3 - - 29 16 - - SSW 1011,8 23 36 0,0
14.06.2019 10:00:00 17,4 10,7 13,7 12,7 28 15 - - SSW 1011,6 29 54 0,0
14.06.2019 09:00:00 16,3 10,9 - - 24 13 - - S 1011,5 40 60 0,0
14.06.2019 08:00:00 15,2 10,7 - - 24 13 - - S 1011,2 35 60 0,0
14.06.2019 07:00:00 13,5 11,1 - - 16 9 - - S 1011,0 29 36 0,0
14.06.2019 06:00:00 12,4 10,6 - - 18 10 - - S 1010,9 35 0 0,0
14.06.2019 05:00:00 10,9 10,0 - - 9 5 - - S 1010,8 23 0 0,0
14.06.2019 04:00:00 10,5 9,2 - - 9 5 - - S 1010,3 22 0 0,0
14.06.2019 03:00:00 11,3 9,9 - - 16 9 - - SSW 1010,0 24 0 0,0
14.06.2019 02:00:00 11,6 10,2 - - 15 8 - - S 1010,1 23 0 0,0
14.06.2019 01:00:00 12,0 10,2 - - 16 9 - - S 1010,3 29 - 0,0
14.06.2019 00:00:00 12,6 9,9 - - 22 12 - - SSW 1010,1 30 0 0,0
13.06.2019 23:00:00 13,0 9,7 - - 24 13 - - SSW 1009,9 35 0 0,0
13.06.2019 22:00:00 13,1 8,8 - - 26 14 - - SSW 1009,6 40 0 0,0
13.06.2019 21:00:00 13,2 8,5 - - 28 15 - - SSW 1008,8 45 0 0,0
13.06.2019 20:00:00 13,5 9,2 - - 26 14 50 27 SSW 1008,4 29 42 0,0
13.06.2019 19:00:00 14,4 9,3 - - 26 14 54 29 SSW 1007,8 40 18 0,0
13.06.2019 18:00:00 15,0 8,9 - - 28 15 52 28 SSW 1007,4 40 0 0,0
13.06.2019 17:00:00 15,2 9,7 - - 28 15 48 26 SW 1007,3 40 0 0,0
13.06.2019 16:00:00 14,8 9,6 - - 29 16 - - SSW 1007,4 30 0 0,0
13.06.2019 15:00:00 15,2 9,8 - - 29 16 50 27 SSW 1007,3 45 6 0,0
13.06.2019 14:00:00 15,8 10,1 - - 34 18 59 32 SSW 1007,2 35 12 0,0
13.06.2019 13:00:00 15,2 10,1 - - 31 17 55 30 SSW 1007,3 35 6 0,0
13.06.2019 12:00:00 14,9 10,7 - - 35 19 52 28 SSW 1007,3 15 18 0,2
13.06.2019 11:00:00 13,6 11,2 - - 29 16 50 27 SSW 1007,2 30 24 0,0
13.06.2019 10:00:00 13,5 11,6 13,7 12,9 28 15 - - SSW 1007,1 26 6 0,4
13.06.2019 09:00:00 12,2 11,0 - - 22 12 - - SW 1007,1 6 6 1,8
13.06.2019 08:00:00 13,2 11,3 - - 21 11 - - SSW 1006,8 17 42 0,0
13.06.2019 07:00:00 12,0 11,4 - - 18 10 - - SSW 1006,7 8 54 0,0
13.06.2019 06:00:00 10,5 10,3 - - 13 7 - - SSW 1006,7 4,4 24 0,0
13.06.2019 05:00:00 9,4 9,2 - - 11 6 - - SW 1006,6 2,7 0 0,0
13.06.2019 04:00:00 9,4 9,1 - - 9 5 - - SSW 1006,4 2,5 0 0,0
13.06.2019 03:00:00 8,4 8,1 - - 9 5 - - S 1006,6 0,1 0 0,0
13.06.2019 02:00:00 9,3 9,0 - - 9 5 - - SW 1006,9 0,1 0 0,0
13.06.2019 01:00:00 9,6 9,2 - - 8 4 - - SSW 1007,2 0,2 - 0,0
13.06.2019 00:00:00 10,0 9,5 - - 9 5 - - S 1007,5 0,1 0 0,0
12.06.2019 23:00:00 10,9 10,3 - - 8 4 - - SSW 1008,1 2,3 0 0,0
12.06.2019 22:00:00 11,0 10,2 - - 8 4 - - SSE 1008,4 11 0 0,0
12.06.2019 21:00:00 11,1 10,4 - - 5 3 - - ESE 1008,1 16 0 0,0
12.06.2019 20:00:00 12,0 10,9 - - 9 5 - - E 1008,1 14 0 0,0
12.06.2019 19:00:00 12,5 11,7 - - 9 5 - - E 1008,4 17 0 0,0
12.06.2019 18:00:00 12,5 11,6 - - 11 6 - - ENE 1008,6 15 0 0,2
12.06.2019 17:00:00 12,7 12,2 - - 11 6 - - NE 1008,8 7 0 1,0
12.06.2019 16:00:00 12,4 11,6 - - 11 6 - - NE 1009,4 6 0 1,4
12.06.2019 15:00:00 12,9 12,3 - - 9 5 - - ENE 1009,8 7 0 2,2
12.06.2019 14:00:00 13,1 12,3 - - 9 5 - - ENE 1009,7 6 0 1,4
12.06.2019 13:00:00 12,9 11,8 - - 9 5 - - NNE 1009,6 7 0 1,4
12.06.2019 12:00:00 13,3 12,0 - - 11 6 - - NNE 1009,8 9 0 0,8
12.06.2019 11:00:00 13,6 11,2 - - 11 6 - - NNE 1009,7 19 0 0,2
12.06.2019 10:00:00 13,9 11,9 14,0 12,9 9 5 - - NNE 1009,4 13 0 0,0
12.06.2019 09:00:00 13,2 11,9 - - 11 6 - - N 1009,4 22 0 0,2
12.06.2019 08:00:00 13,0 11,9 - - 11 6 - - N 1009,6 13 0 0,0
12.06.2019 07:00:00 12,8 11,9 - - 11 6 - - N 1010,1 10 0 0,0
12.06.2019 06:00:00 12,6 11,5 - - 11 6 - - NNE 1010,1 10 0 0,0
12.06.2019 05:00:00 12,5 11,5 - - 13 7 - - NNE 1010,3 9 0 0,0
12.06.2019 04:00:00 11,8 11,3 - - 13 7 - - NNE 1010,3 11 0 0,0
12.06.2019 03:00:00 9,9 9,3 - - 11 6 - - N 1010,9 3,9 0 0,0
12.06.2019 02:00:00 9,0 7,9 - - 5 3 - - N 1011,0 14 0 0,0
12.06.2019 01:00:00 10,3 8,5 - - 8 4 - - W 1011,2 28 - 0,0
12.06.2019 00:00:00 11,1 7,4 - - 11 6 - - WSW 1011,4 35 0 0,0
11.06.2019 23:00:00 11,7 7,1 - - 9 5 - - SSW 1012,0 50 0 0,0
11.06.2019 22:00:00 12,4 8,7 - - 16 9 - - SE 1012,2 35 0 0,0
11.06.2019 21:00:00 13,1 8,7 - - 13 7 - - SE 1011,9 45 30 0,0
11.06.2019 20:00:00 16,8 5,3 - - 9 5 - - S 1011,4 40 60 0,0
11.06.2019 19:00:00 18,0 5,2 - - 9 5 - - SSW 1011,3 30 60 0,0

tt = temperature
td = dewpoint
tt -20cm = temperature -20cm
tt -100cm = temperature -100cm
ff = wind speed
fx = gusts
dd = wind direction
ppp = reduced air pressure
vv = visibility
sd = sunshine duration
rr = precipitation

Next stations